TimeIST,TemperatureF,Dew PointF,Humidity,Sea Level PressureIn,VisibilityMPH,Wind Direction,Wind SpeedMPH,Gust SpeedMPH,PrecipitationIn,Events,Conditions,WindDirDegrees,DateUTC
12:15 AM,80.6,75.2,84,29.95,6.2,South,8.1,-,N/A,,Mostly Cloudy,170,2012-10-01 22:15:00
12:50 AM,80.6,75.2,84,29.95,6.2,South,6.9,-,N/A,,Mostly Cloudy,180,2012-10-01 22:50:00
1:40 AM,80.6,75.2,84,29.95,6.2,South,6.9,-,N/A,,Scattered Clouds,180,2012-10-01 23:40:00
1:50 AM,80.6,75.2,84,29.95,6.2,South,6.9,-,N/A,,Scattered Clouds,180,2012-10-01 23:50:00
2:00 AM,80,75,82,29.96,6,South,6.9,,,,Partly Cloudy,180,2012-10-02 00:00:00
2:50 AM,78.8,75.2,89,29.95,6.2,SSE,4.6,-,N/A,,Partly Cloudy,160,2012-10-02 00:50:00
3:50 AM,78.8,73.4,83,29.95,6.2,SSE,5.8,-,N/A,,Partly Cloudy,150,2012-10-02 01:50:00
4:50 AM,78.8,73.4,83,29.95,6.2,East,5.8,-,N/A,,Scattered Clouds,100,2012-10-02 02:50:00
5:50 AM,77.0,71.6,83,29.95,4.3,SSE,5.8,-,N/A,,Unknown,150,2012-10-02 03:50:00
6:50 AM,78.8,73.4,83,29.98,4.3,South,5.8,-,N/A,,Scattered Clouds,190,2012-10-02 04:50:00
7:50 AM,80.6,73.4,79,29.98,5.0,SE,4.6,-,N/A,,Scattered Clouds,130,2012-10-02 05:50:00
8:00 AM,80,74,76,30.00,5,SE,4.6,,,,Mist,130,2012-10-02 06:00:00
8:50 AM,80.6,73.4,79,29.98,6.2,Variable,2.3,-,N/A,,Mostly Cloudy,0,2012-10-02 06:50:00
9:50 AM,86.0,71.6,62,29.98,6.2,Variable,2.3,-,N/A,,Scattered Clouds,0,2012-10-02 07:50:00
10:50 AM,87.8,71.6,58,29.95,6.2,NNW,4.6,-,N/A,,Mostly Cloudy,340,2012-10-02 08:50:00
11:50 AM,89.6,69.8,52,29.95,6.2,West,5.8,-,N/A,,Mostly Cloudy,280,2012-10-02 09:50:00
12:50 PM,87.8,75.2,66,29.92,6.2,West,12.7,-,N/A,,Scattered Clouds,280,2012-10-02 10:50:00
1:50 PM,86.0,73.4,66,29.92,6.2,West,13.8,-,N/A,,Scattered Clouds,270,2012-10-02 11:50:00
2:00 PM,86,73,58,29.93,6,West,13.8,,,,Partly Cloudy,270,2012-10-02 12:00:00
2:50 PM,84.2,73.4,70,29.92,6.2,West,9.2,-,N/A,,Scattered Clouds,280,2012-10-02 12:50:00
3:50 PM,84.2,71.6,66,29.95,6.2,WNW,9.2,-,N/A,,Overcast,300,2012-10-02 13:50:00
4:50 PM,82.4,71.6,70,29.98,6.2,WNW,10.4,-,N/A,,Overcast,300,2012-10-02 14:50:00
5:50 PM,82.4,69.8,66,29.95,6.2,NW,6.9,-,N/A,,Overcast,320,2012-10-02 15:50:00
6:50 PM,80.6,69.8,70,29.98,6.2,WNW,5.8,-,N/A,,Mostly Cloudy,300,2012-10-02 16:50:00
7:50 PM,80.6,69.8,70,29.98,6.2,NW,2.3,-,N/A,,Mostly Cloudy,310,2012-10-02 17:50:00
8:00 PM,81,69,59,29.99,6,NW,2.3,,,,Mostly Cloudy,310,2012-10-02 18:00:00
8:50 PM,80.6,71.6,74,30.01,6.2,West,5.8,-,N/A,,Mostly Cloudy,260,2012-10-02 18:50:00
9:50 PM,80.6,71.6,74,30.01,6.2,West,6.9,-,N/A,,Mostly Cloudy,260,2012-10-02 19:50:00
10:50 PM,80.6,69.8,70,30.01,6.2,West,6.9,-,N/A,,Mostly Cloudy,270,2012-10-02 20:50:00
11:50 PM,80.6,69.8,70,30.01,6.2,West,8.1,-,N/A,,Overcast,280,2012-10-02 21:50:00